This is the latest recevied weather packets stored in our database for station/object KD4KKF. If no packets are shown the sender has not sent any weather packets the latest 10 day(s).
| Time | Temp. | Humidity | Pressure | Rain* | Wind** | Luminosity | Snow |
|---|---|---|---|---|---|---|---|
| 1777817369 | 13.89° C | 72% | 1022 hPa | 0 mm | - | 568 W/m² | - |
| 1777817060 | 13.33° C | 74% | 1021.8 hPa | 0 mm | - | 521 W/m² | - |
| 1777816756 | 13.89° C | 75% | 1021.6 hPa | 0 mm | - | 527 W/m² | - |
| 1777816454 | 13.33° C | 77% | 1021.6 hPa | 0 mm | - | 479 W/m² | - |
| 1777816151 | 13.33° C | 76% | 1021.7 hPa | 0 mm | - | 458 W/m² | - |
| 1777815850 | 12.78° C | 77% | 1021.6 hPa | 0 mm | - | 153 W/m² | - |
| 1777815547 | 12.78° C | 78% | 1021.7 hPa | 0 mm | - | 388 W/m² | - |
| 1777815244 | 12.78° C | 79% | 1021.8 hPa | 0 mm | - | 363 W/m² | - |
| 1777814939 | 12.78° C | 80% | 1021.9 hPa | 0 mm | - | 344 W/m² | - |
| 1777814636 | 12.22° C | 80% | 1021.8 hPa | 0 mm | - | 328 W/m² | - |
| 1777814333 | 12.22° C | 82% | 1022 hPa | 0 mm | - | 329 W/m² | - |
| 1777814029 | 12.22° C | 83% | 1021.8 hPa | 0 mm | - | 308 W/m² | - |
| 1777813727 | 11.67° C | 86% | 1021.6 hPa | 0 mm | - | 279 W/m² | - |
| 1777813424 | 11.11° C | 86% | 1021.7 hPa | 0 mm | - | 260 W/m² | - |
| 1777813121 | 11.11° C | 87% | 1021.9 hPa | 0 mm | - | 118 W/m² | - |
| 1777812819 | 10.56° C | 88% | 1021.6 hPa | 0 mm | - | 165 W/m² | - |
| 1777812516 | 10.56° C | 89% | 1021.7 hPa | 0 mm | - | 110 W/m² | - |
| 1777812214 | 10° C | 90% | 1021.8 hPa | 0 mm | - | 90 W/m² | - |
| 1777811911 | 10° C | 92% | 1021.7 hPa | 0 mm | - | 82 W/m² | - |
| 1777811610 | 9.44° C | 98% | 1021.8 hPa | 0 mm | - | 75 W/m² | - |
| 1777811305 | 8.89° C | 99% | 1021.6 hPa | 0 mm | - | 69 W/m² | - |
| 1777811003 | 8.33° C | 99% | 1021.5 hPa | 0 mm | - | 64 W/m² | - |
| 1777810700 | 7.78° C | 99% | 1021.7 hPa | 0 mm | - | 58 W/m² | - |
| 1777810396 | 7.78° C | 99% | 1021.6 hPa | 0 mm | - | 54 W/m² | - |
| 1777810092 | 7.22° C | 99% | 1021.5 hPa | 0 mm | - | 50 W/m² | - |
* Rain latest hour (hover to see other rain measurements)
** Current wind speed in m/s (hover to see current wind gust speed)